085  
NZUS01 KABQ 161610  
RWRABQ  
NEW MEXICO REGIONAL WEATHER ROUNDUP  
NATIONAL WEATHER SERVICE ALBUQUERQUE NM  
1000 AM MDT TUE OCT 16 2018  
 
-----NORTHERN NEW MEXICO AND NEARBY AREAS-----  
 
 
CITY SKY/WX TMP DP RH WIND PRES REMARKS
 
ALBUQUERQUE PTSUNNY 46 23 40 E31G39 30.29F  
BELEN PTSUNNY 45 28 51 W7 30.31  
SOCORRO CLOUDY 44 22 42 N7 30.32S  
 
CITY SKY/WX TMP DP RH WIND PRES REMARKS
 
SANTA FE MOSUNNY 40 32 73 S3 30.34S  
LOS ALAMOS MOSUNNY 40 28 60 N9G17 30.34S  
TAOS SUNNY 40 28 62 N10 30.38S  
ANGEL FIRE CLOUDY 29 22 75 CALM 30.42S  
FARMINGTON PTSUNNY 43 30 60 E6 30.27F  
GRANTS CLOUDY 38 26 60 S17G29 30.29  
GALLUP PTSUNNY 44 30 57 NE17G25 30.21S  
FLAGSTAFF LGT SNOW 31 29 92 E10 30.16R FOG WCI 22  
DURANGO SUNNY 38 26 62 E7 30.31S  
 
CITY SKY/WX TMP DP RH WIND PRES REMARKS
 
ALAMOSA SUNNY 37 19 48 N3 30.39S  
DENVER SUNNY 45 19 35 W8 30.42R  
CLAYTON CLOUDY 46 21 37 N15 30.39R  
RATON PTSUNNY 44 22 41 E6 30.39R  
LAS VEGAS CLOUDY 42 26 53 NE10 30.39R  
CLINES CORNERS CLOUDY 35 24 64 E17G30 30.35S WCI 25  
SANTA ROSA CLOUDY 44 28 53 N12 30.37  
TUCUMCARI CLOUDY 49 27 42 NE9 30.37R  
CLOVIS (AFB) CLOUDY 44 25 47 NE14 30.38S  
CLOVIS CLOUDY 45 26 47 NE13 30.38S  
AMARILLO CLOUDY 47 28 47 N8 30.38F  
 
-----SOUTHERN NEW MEXICO AND NEARBY AREAS-----  
 
 
CITY SKY/WX TMP DP RH WIND PRES REMARKS
 
T OR C CLOUDY 44 23 43 N16G25 30.27R  
DEMING CLOUDY 43 33 68 E23G30 30.23S  
TUCSON SUNNY 59 46 62 E23G29 30.03R  
EL PASO CLOUDY 44 29 55 SE10 30.28R  
LAS CRUCES CLOUDY 45 29 53 E9 30.27S  
 
CITY SKY/WX TMP DP RH WIND PRES REMARKS
 
ALAMOGORDO CLOUDY 47 34 60 CALM 30.29S  
RUIDOSO CLOUDY 32 18 55 SE10 30.37 WCI 24  
ROSWELL CLOUDY 45 29 53 N8 30.37S  
CARLSBAD CLOUDY 44 28 53 N12 30.37R  
HOBBS CLOUDY 41 32 70 NE10G17 30.37R  
 
CLICK HERE TO GO TO PREVIOUS BULLETINS.

The Nexlab NM Page Main Text Page